{"data":{"norad_id":59625,"intl_designator":"2024-081A","name":"LEGION 1","alt_names":[],"object_type":"PAYLOAD","status":"ACTIVE","operator":null,"country":"US","launch_date":"2024-05-02","launch_site_code":"AFWTR","launch_vehicle":null,"mission":null,"orbit_class":"UNKNOWN","rcs_meters":null,"size_class":null,"mass_kg":null,"dimensions":null,"purposes":["earth_obs"],"wikipedia_slug":null,"has_3d_model":false,"image_url":null,"decayed_at":null,"tle_current":{"epoch":"2026-05-25T04:48:06.430752Z","epoch_age_seconds":61801,"freshness":"FRESH","line1":"1 59625U 24081A   26145.20007443  .00003409  00000+0  17834-3 0  9991","line2":"2 59625  97.5016 223.3053 0011033  89.4835 270.7662 15.16474922114052","mean_motion":15.16474922,"eccentricity":0.0011033,"inclination_deg":97.5016,"raan_deg":223.3053,"arg_perigee_deg":89.4835,"mean_anomaly_deg":270.7662,"bstar":0.00017834,"rev_number":11405,"period_min":94.95705989657,"perigee_km":508.89759472188,"apogee_km":524.11131055127,"semimajor_km":6894.6414526366,"source":"CELESTRAK","updated_at":"2026-05-25T13:38:12.836316Z"}}}